Location: Isle of Man Observatory
(54.1776°N, 4.6264°W)
Time: 08:41:54
(UTC+01:00)

ISS - Visible Passes

Search period start: 01 December 2021 00:00
Search period end: 11 December 2021 00:00
Orbit: 417 x 423 km, 51.6° (Epoch: 01 December)

Date Brightness Start Highest point End Pass type
(mag) Time Alt. Az. Time Alt. Az. Time Alt. Az.
01 Dec -3.2 18:42:08 10° W 18:45:27 53° S 18:47:25 22° ESE visible
01 Dec -1.0 20:19:01 10° W 20:20:24 19° WSW 20:20:24 19° WSW visible
02 Dec -3.2 17:54:58 10° W 17:58:19 56° S 18:01:40 10° ESE visible
02 Dec -2.4 19:31:45 10° W 19:34:51 33° SSW 19:35:14 32° S visible
03 Dec -2.6 18:44:32 10° W 18:47:45 40° SSW 18:50:10 16° SE visible
03 Dec -0.7 20:21:59 10° WSW 20:23:10 14° SW 20:23:10 14° SW visible
04 Dec -2.8 17:57:20 10° W 18:00:37 47° SSW 18:03:54 10° ESE visible
04 Dec -1.4 19:34:25 10° W 19:36:58 20° SSW 19:38:13 16° S visible
05 Dec -1.6 18:47:01 10° W 18:49:54 26° SSW 18:52:47 10° SSE visible
06 Dec -2.0 17:59:43 10° W 18:02:49 33° SSW 18:05:54 10° SE visible
06 Dec -0.5 19:38:17 10° SW 19:38:53 10° SW 19:39:28 10° SSW visible
07 Dec -0.7 18:49:56 10° WSW 18:51:53 15° SW 18:53:51 10° S visible
08 Dec -0.9 18:02:19 10° W 18:04:50 20° SSW 18:07:22 10° SSE visible
10 Dec 0.1 18:06:18 10° SW 18:06:40 10° SW 18:07:03 10° SW visible
